Year,Month,Day,Hour,Minute,Value (Times are PST for windgust in km/hr)
2010,11,15,00,00,3.20
2010,11,15,00,01,3.20
2010,11,15,00,02,3.20
2010,11,15,00,05,1.60
2010,11,15,00,07,1.60
2010,11,15,00,12,1.60
2010,11,15,00,13,1.60
2010,11,15,00,15,1.60
2010,11,15,00,16,3.20
2010,11,15,00,20,1.60
2010,11,15,00,21,3.20
2010,11,15,00,22,1.60
2010,11,15,00,29,1.60
2010,11,15,00,42,1.60
2010,11,15,00,49,1.60
2010,11,15,00,53,1.60
2010,11,15,00,55,1.60
2010,11,15,05,17,1.60
2010,11,15,05,24,1.60
2010,11,15,06,37,1.60
2010,11,15,06,38,1.60
2010,11,15,06,39,1.60
2010,11,15,06,43,1.60
2010,11,15,06,44,1.60
2010,11,15,06,51,1.60
2010,11,15,07,00,1.60
2010,11,15,08,08,1.60
2010,11,15,08,09,1.60
2010,11,15,08,31,3.20
2010,11,15,08,32,4.80
2010,11,15,08,33,1.60
2010,11,15,08,34,1.60
2010,11,15,08,36,1.60
2010,11,15,08,47,1.60
2010,11,15,08,49,1.60
2010,11,15,08,50,1.60
2010,11,15,08,51,3.20
2010,11,15,09,21,1.60
2010,11,15,09,24,1.60
2010,11,15,09,25,1.60
2010,11,15,09,27,1.60
2010,11,15,09,28,1.60
2010,11,15,09,29,1.60
2010,11,15,09,30,1.60
2010,11,15,09,31,1.60
2010,11,15,09,33,3.20
2010,11,15,09,36,1.60
2010,11,15,09,38,4.80
2010,11,15,09,39,3.20
2010,11,15,09,40,4.80
2010,11,15,09,43,1.60
2010,11,15,09,44,3.20
2010,11,15,09,45,4.80
2010,11,15,09,46,6.40
2010,11,15,09,47,4.80
2010,11,15,09,48,9.60
2010,11,15,09,49,6.40
2010,11,15,09,50,9.60
2010,11,15,09,51,6.40
2010,11,15,09,52,1.60
2010,11,15,09,53,6.40
2010,11,15,09,54,4.80
2010,11,15,09,55,6.40
2010,11,15,09,56,6.40
2010,11,15,09,57,6.40
2010,11,15,09,58,8.10
2010,11,15,09,59,3.20
2010,11,15,10,00,8.10
2010,11,15,10,01,6.40
2010,11,15,10,02,3.20
2010,11,15,10,03,4.80
2010,11,15,10,04,3.20
2010,11,15,10,05,1.60
2010,11,15,10,06,1.60
2010,11,15,10,07,1.60
2010,11,15,10,08,3.20
2010,11,15,10,09,1.60
2010,11,15,10,12,6.40
2010,11,15,10,13,1.60
2010,11,15,10,14,4.80
2010,11,15,10,16,6.40
2010,11,15,10,17,4.80
2010,11,15,10,18,6.40
2010,11,15,10,19,1.60
2010,11,15,10,20,3.20
2010,11,15,10,21,8.10
2010,11,15,10,22,8.10
2010,11,15,10,23,4.80
2010,11,15,10,24,6.40
2010,11,15,10,25,3.20
2010,11,15,10,26,4.80
2010,11,15,10,27,4.80
2010,11,15,10,28,1.60
2010,11,15,10,29,4.80
2010,11,15,10,30,3.20
2010,11,15,10,31,4.80
2010,11,15,10,32,8.10
2010,11,15,10,33,3.20
2010,11,15,10,34,6.40
2010,11,15,10,35,6.40
2010,11,15,10,36,4.80
2010,11,15,10,37,4.80
2010,11,15,10,38,4.80
2010,11,15,10,39,4.80
2010,11,15,10,40,6.40
2010,11,15,10,41,4.80
2010,11,15,10,42,6.40
2010,11,15,10,43,3.20
2010,11,15,10,44,1.60
2010,11,15,10,46,1.60
2010,11,15,10,47,1.60
2010,11,15,10,48,1.60
2010,11,15,10,49,1.60
2010,11,15,10,50,1.60
2010,11,15,10,51,1.60
2010,11,15,10,52,6.40
2010,11,15,10,53,4.80
2010,11,15,10,56,1.60
2010,11,15,10,57,1.60
2010,11,15,10,58,1.60
2010,11,15,11,03,1.60
2010,11,15,11,04,1.60
2010,11,15,11,05,6.40
2010,11,15,11,07,1.60
2010,11,15,11,09,3.20
2010,11,15,11,10,4.80
2010,11,15,11,11,1.60
2010,11,15,11,12,3.20
2010,11,15,11,13,3.20
2010,11,15,11,14,3.20
2010,11,15,11,17,1.60
2010,11,15,11,18,4.80
2010,11,15,11,19,3.20
2010,11,15,11,20,1.60
2010,11,15,11,24,4.80
2010,11,15,11,28,6.40
2010,11,15,11,29,3.20
2010,11,15,11,30,1.60
2010,11,15,11,31,1.60
2010,11,15,11,32,1.60
2010,11,15,11,33,8.10
2010,11,15,11,34,1.60
2010,11,15,11,35,1.60
2010,11,15,11,36,4.80
2010,11,15,11,37,4.80
2010,11,15,11,38,4.80
2010,11,15,11,39,3.20
2010,11,15,11,40,4.80
2010,11,15,11,41,1.60
2010,11,15,11,42,1.60
2010,11,15,11,45,4.80
2010,11,15,11,46,1.60
2010,11,15,11,49,1.60
2010,11,15,11,51,4.80
2010,11,15,11,52,8.10
2010,11,15,11,53,8.10
2010,11,15,11,54,3.20
2010,11,15,11,55,1.60
2010,11,15,11,56,6.40
2010,11,15,11,57,9.60
2010,11,15,11,58,6.40
2010,11,15,11,59,4.80
2010,11,15,12,00,8.10
2010,11,15,12,01,3.20
2010,11,15,12,02,9.60
2010,11,15,12,03,1.60
2010,11,15,12,04,12.90
2010,11,15,12,05,8.10
2010,11,15,12,06,8.10
2010,11,15,12,07,6.40
2010,11,15,12,08,20.90
2010,11,15,12,09,9.60
2010,11,15,12,10,6.40
2010,11,15,12,11,11.30
2010,11,15,12,12,11.30
2010,11,15,12,13,11.30
2010,11,15,12,14,9.60
2010,11,15,12,15,11.30
2010,11,15,12,16,14.50
2010,11,15,12,17,11.30
2010,11,15,12,18,16.10
2010,11,15,12,19,8.10
2010,11,15,12,20,4.80
2010,11,15,12,21,8.10
2010,11,15,12,22,8.10
2010,11,15,12,23,6.40
2010,11,15,12,24,6.40
2010,11,15,12,25,14.50
2010,11,15,12,26,16.10
2010,11,15,12,27,4.80
2010,11,15,12,28,11.30
2010,11,15,12,29,9.60
2010,11,15,12,30,11.30
2010,11,15,12,31,9.60
2010,11,15,12,32,9.60
2010,11,15,12,33,6.40
2010,11,15,12,34,16.10
2010,11,15,12,35,19.30
2010,11,15,12,36,16.10
2010,11,15,12,37,11.30
2010,11,15,12,38,17.70
2010,11,15,12,39,16.10
2010,11,15,12,40,22.50
2010,11,15,12,41,17.70
2010,11,15,12,42,27.40
2010,11,15,12,43,17.70
2010,11,15,12,44,19.30
2010,11,15,12,45,11.30
2010,11,15,12,46,16.10
2010,11,15,12,47,19.30
2010,11,15,12,48,12.90
2010,11,15,12,49,12.90
2010,11,15,12,50,11.30
2010,11,15,12,51,11.30
2010,11,15,12,52,14.50
2010,11,15,12,53,9.60
2010,11,15,12,54,9.60
2010,11,15,12,55,22.50
2010,11,15,12,56,14.50
2010,11,15,12,57,17.70
2010,11,15,12,58,16.10
2010,11,15,12,59,11.30
2010,11,15,13,00,9.60
2010,11,15,13,01,8.10
2010,11,15,13,02,6.40
2010,11,15,13,03,8.10
2010,11,15,13,04,11.30
2010,11,15,13,05,11.30
2010,11,15,13,06,9.60
2010,11,15,13,07,11.30
2010,11,15,13,08,9.60
2010,11,15,13,09,16.10
2010,11,15,13,10,6.40
2010,11,15,13,11,8.10
2010,11,15,13,12,14.50
2010,11,15,13,13,11.30
2010,11,15,13,14,16.10
2010,11,15,13,15,11.30
2010,11,15,13,16,14.50
2010,11,15,13,17,9.60
2010,11,15,13,18,11.30
2010,11,15,13,19,11.30
2010,11,15,13,20,17.70
2010,11,15,13,21,8.10
2010,11,15,13,22,9.60
2010,11,15,13,23,16.10
2010,11,15,13,24,11.30
2010,11,15,13,25,9.60
2010,11,15,13,26,8.10
2010,11,15,13,27,12.90
2010,11,15,13,28,16.10
2010,11,15,13,29,11.30
2010,11,15,13,30,11.30
2010,11,15,13,31,9.60
2010,11,15,13,32,14.50
2010,11,15,13,33,19.30
2010,11,15,13,34,17.70
2010,11,15,13,35,17.70
2010,11,15,13,36,16.10
2010,11,15,13,37,14.50
2010,11,15,13,38,19.30
2010,11,15,13,39,11.30
2010,11,15,13,40,17.70
2010,11,15,13,41,17.70
2010,11,15,13,42,19.30
2010,11,15,13,43,16.10
2010,11,15,13,44,16.10
2010,11,15,13,45,17.70
2010,11,15,13,46,19.30
2010,11,15,13,47,16.10
2010,11,15,13,48,17.70
2010,11,15,13,49,17.70
2010,11,15,13,50,17.70
2010,11,15,13,51,12.90
2010,11,15,13,52,16.10
2010,11,15,13,53,16.10
2010,11,15,13,54,20.90
2010,11,15,13,55,12.90
2010,11,15,13,56,16.10
2010,11,15,13,57,14.50
2010,11,15,13,58,12.90
2010,11,15,13,59,16.10
2010,11,15,14,00,17.70
2010,11,15,14,01,11.30
2010,11,15,14,02,11.30
2010,11,15,14,03,14.50
2010,11,15,14,04,9.60
2010,11,15,14,05,11.30
2010,11,15,14,06,14.50
2010,11,15,14,07,14.50
2010,11,15,14,08,19.30
2010,11,15,14,09,11.30
2010,11,15,14,10,24.20
2010,11,15,14,11,14.50
2010,11,15,14,12,9.60
2010,11,15,14,13,19.30
2010,11,15,14,14,20.90
2010,11,15,14,15,11.30
2010,11,15,14,16,32.20
2010,11,15,14,17,22.50
2010,11,15,14,18,9.60
2010,11,15,14,19,17.70
2010,11,15,14,20,17.70
2010,11,15,14,21,16.10
2010,11,15,14,22,16.10
2010,11,15,14,23,11.30
2010,11,15,14,24,17.70
2010,11,15,14,25,17.70
2010,11,15,14,26,11.30
2010,11,15,14,27,8.10
2010,11,15,14,28,24.20
2010,11,15,14,29,19.30
2010,11,15,14,30,17.70
2010,11,15,14,31,14.50
2010,11,15,14,32,14.50
2010,11,15,14,33,22.50
2010,11,15,14,34,8.10
2010,11,15,14,35,17.70
2010,11,15,14,36,16.10
2010,11,15,14,37,16.10
2010,11,15,14,38,11.30
2010,11,15,14,39,8.10
2010,11,15,14,40,16.10
2010,11,15,14,41,8.10
2010,11,15,14,42,9.60
2010,11,15,14,43,12.90
2010,11,15,14,44,12.90
2010,11,15,14,45,6.40
2010,11,15,14,46,8.10
2010,11,15,14,47,6.40
2010,11,15,14,48,4.80
2010,11,15,14,49,1.60
2010,11,15,14,50,1.60
2010,11,15,14,51,3.20
2010,11,15,14,52,6.40
2010,11,15,14,53,1.60
2010,11,15,14,55,8.10
2010,11,15,14,56,8.10
2010,11,15,14,57,3.20
2010,11,15,14,58,4.80
2010,11,15,14,59,4.80
2010,11,15,15,00,3.20
2010,11,15,15,01,6.40
2010,11,15,15,02,6.40
2010,11,15,15,03,1.60
2010,11,15,15,04,4.80
2010,11,15,15,05,1.60
2010,11,15,15,06,6.40
2010,11,15,15,07,1.60
2010,11,15,15,09,1.60
2010,11,15,15,10,1.60
2010,11,15,15,12,3.20
2010,11,15,15,13,6.40
2010,11,15,15,14,6.40
2010,11,15,15,15,8.10
2010,11,15,15,16,6.40
2010,11,15,15,17,11.30
2010,11,15,15,18,11.30
2010,11,15,15,19,11.30
2010,11,15,15,20,30.60
2010,11,15,15,21,24.20
2010,11,15,15,22,19.30
2010,11,15,15,23,24.20
2010,11,15,15,24,32.20
2010,11,15,15,25,29.00
2010,11,15,15,26,14.50
2010,11,15,15,27,12.90
2010,11,15,15,28,25.70
2010,11,15,15,29,32.20
2010,11,15,15,30,27.40
2010,11,15,15,31,30.60
2010,11,15,15,32,27.40
2010,11,15,15,33,30.60
2010,11,15,15,34,32.20
2010,11,15,15,35,33.80
2010,11,15,15,36,29.00
2010,11,15,15,37,32.20
2010,11,15,15,38,35.40
2010,11,15,15,39,32.20
2010,11,15,15,40,25.70
2010,11,15,15,41,30.60
2010,11,15,15,44,29.00
2010,11,15,15,45,27.40
2010,11,15,15,46,27.40
2010,11,15,15,47,29.00
2010,11,15,15,48,30.60
2010,11,15,15,49,27.40
2010,11,15,15,50,25.70
2010,11,15,15,51,29.00
2010,11,15,15,52,24.20
2010,11,15,15,53,27.40
2010,11,15,15,54,27.40
2010,11,15,15,55,32.20
2010,11,15,15,56,33.80
2010,11,15,15,57,30.60
2010,11,15,15,58,27.40
2010,11,15,15,59,24.20
2010,11,15,16,00,27.40
2010,11,15,16,01,25.70
2010,11,15,16,02,30.60
2010,11,15,16,03,30.60
2010,11,15,16,04,38.60
2010,11,15,16,05,33.80
2010,11,15,16,06,32.20
2010,11,15,16,07,33.80
2010,11,15,16,08,38.60
2010,11,15,16,09,46.70
2010,11,15,16,10,35.40
2010,11,15,16,11,33.80
2010,11,15,16,12,33.80
2010,11,15,16,13,32.20
2010,11,15,16,14,30.60
2010,11,15,16,15,38.60
2010,11,15,16,16,33.80
2010,11,15,16,17,41.80
2010,11,15,16,18,33.80
2010,11,15,16,19,32.20
2010,11,15,16,20,35.40
2010,11,15,16,21,37.00
2010,11,15,16,22,37.00
2010,11,15,16,23,38.60
2010,11,15,16,24,35.40
2010,11,15,16,25,35.40
2010,11,15,16,26,33.80
2010,11,15,16,27,35.40
2010,11,15,16,28,32.20
2010,11,15,16,29,32.20
2010,11,15,16,30,40.20
2010,11,15,16,31,32.20
2010,11,15,16,32,29.00
2010,11,15,16,33,30.60
2010,11,15,16,34,33.80
2010,11,15,16,35,30.60
2010,11,15,16,36,32.20
2010,11,15,16,37,35.40
2010,11,15,16,38,24.20
2010,11,15,16,39,30.60
2010,11,15,16,40,30.60
2010,11,15,16,41,29.00
2010,11,15,16,42,25.70
2010,11,15,16,43,30.60
2010,11,15,16,44,45.10
2010,11,15,16,45,27.40
2010,11,15,16,46,30.60
2010,11,15,16,47,29.00
2010,11,15,16,48,22.50
2010,11,15,16,49,27.40
2010,11,15,16,50,25.70
2010,11,15,16,51,17.70
2010,11,15,16,52,24.20
2010,11,15,16,53,17.70
2010,11,15,16,54,22.50
2010,11,15,16,55,20.90
2010,11,15,16,56,19.30
2010,11,15,16,57,20.90
2010,11,15,16,58,25.70
2010,11,15,16,59,33.80
2010,11,15,17,00,30.60
2010,11,15,17,01,22.50
2010,11,15,17,02,24.20
2010,11,15,17,03,25.70
2010,11,15,17,04,12.90
2010,11,15,17,05,38.60
2010,11,15,17,06,25.70
2010,11,15,17,07,19.30
2010,11,15,17,08,22.50
2010,11,15,17,09,25.70
2010,11,15,17,10,22.50
2010,11,15,17,11,19.30
2010,11,15,17,12,22.50
2010,11,15,17,13,19.30
2010,11,15,17,14,27.40
2010,11,15,17,15,17.70
2010,11,15,17,16,17.70
2010,11,15,17,17,25.70
2010,11,15,17,18,25.70
2010,11,15,17,19,22.50
2010,11,15,17,20,14.50
2010,11,15,17,21,16.10
2010,11,15,17,22,22.50
2010,11,15,17,23,20.90
2010,11,15,17,24,25.70
2010,11,15,17,25,20.90
2010,11,15,17,26,17.70
2010,11,15,17,27,16.10
2010,11,15,17,28,20.90
2010,11,15,17,29,17.70
2010,11,15,17,30,16.10
2010,11,15,17,31,20.90
2010,11,15,17,32,20.90
2010,11,15,17,33,27.40
2010,11,15,17,34,20.90
2010,11,15,17,35,17.70
2010,11,15,17,36,9.60
2010,11,15,17,37,12.90
2010,11,15,17,38,20.90
2010,11,15,17,39,16.10
2010,11,15,17,40,17.70
2010,11,15,17,41,9.60
2010,11,15,17,42,9.60
2010,11,15,17,43,9.60
2010,11,15,17,44,9.60
2010,11,15,17,45,16.10
2010,11,15,17,46,11.30
2010,11,15,17,47,17.70
2010,11,15,17,48,11.30
2010,11,15,17,49,6.40
2010,11,15,17,50,4.80
2010,11,15,17,51,6.40
2010,11,15,17,52,8.10
2010,11,15,17,53,1.60
2010,11,15,17,54,6.40
2010,11,15,17,55,3.20
2010,11,15,17,56,3.20
2010,11,15,17,57,1.60
2010,11,15,17,58,3.20
2010,11,15,17,59,1.60
2010,11,15,18,05,1.60
2010,11,15,18,06,1.60
2010,11,15,18,07,1.60
2010,11,15,18,10,4.80
2010,11,15,18,15,3.20
2010,11,15,18,18,1.60
2010,11,15,18,20,1.60
2010,11,15,18,21,4.80
2010,11,15,18,22,1.60
2010,11,15,18,23,6.40
2010,11,15,18,24,6.40
2010,11,15,18,25,4.80
2010,11,15,18,26,8.10
2010,11,15,18,27,3.20
2010,11,15,18,28,8.10
2010,11,15,18,29,11.30
2010,11,15,18,30,11.30
2010,11,15,18,31,8.10
2010,11,15,18,32,9.60
2010,11,15,18,33,11.30
2010,11,15,18,34,17.70
2010,11,15,18,35,6.40
2010,11,15,18,36,11.30
2010,11,15,18,37,6.40
2010,11,15,18,38,11.30
2010,11,15,18,39,17.70
2010,11,15,18,40,12.90
2010,11,15,18,41,9.60
2010,11,15,18,42,9.60
2010,11,15,18,43,16.10
2010,11,15,18,44,14.50
2010,11,15,18,45,9.60
2010,11,15,18,46,20.90
2010,11,15,18,47,14.50
2010,11,15,18,48,19.30
2010,11,15,18,49,17.70
2010,11,15,18,50,17.70
2010,11,15,18,51,19.30
2010,11,15,18,52,16.10
2010,11,15,18,53,17.70
2010,11,15,18,54,14.50
2010,11,15,18,55,11.30
2010,11,15,18,56,16.10
2010,11,15,18,57,32.20
2010,11,15,18,58,16.10
2010,11,15,18,59,14.50
2010,11,15,19,00,16.10
2010,11,15,19,01,9.60
2010,11,15,19,02,11.30
2010,11,15,19,03,11.30
2010,11,15,19,04,6.40
2010,11,15,19,05,19.30
2010,11,15,19,06,9.60
2010,11,15,19,07,1.60
2010,11,15,19,08,8.10
2010,11,15,19,09,3.20
2010,11,15,19,10,3.20
2010,11,15,19,11,6.40
2010,11,15,19,12,19.30
2010,11,15,19,13,35.40
2010,11,15,19,14,43.50
2010,11,15,19,15,37.00
2010,11,15,19,16,41.80
2010,11,15,19,17,51.50
2010,11,15,19,18,41.80
2010,11,15,19,19,48.30
2010,11,15,19,20,38.60
2010,11,15,19,21,38.60
2010,11,15,19,22,37.00
2010,11,15,19,23,37.00
2010,11,15,19,24,38.60
2010,11,15,19,25,48.30
2010,11,15,19,26,46.70
2010,11,15,19,27,40.20
2010,11,15,19,28,49.90
2010,11,15,19,29,45.10
2010,11,15,19,30,59.50
2010,11,15,19,31,38.60
2010,11,15,19,32,40.20
2010,11,15,19,33,38.60
2010,11,15,19,34,38.60
2010,11,15,19,35,37.00
2010,11,15,19,36,38.60
2010,11,15,19,37,41.80
2010,11,15,19,38,40.20
2010,11,15,19,39,32.20
2010,11,15,19,40,33.80
2010,11,15,19,41,30.60
2010,11,15,19,42,33.80
2010,11,15,19,43,37.00
2010,11,15,19,44,27.40
2010,11,15,19,45,35.40
2010,11,15,19,46,25.70
2010,11,15,19,47,40.20
2010,11,15,19,48,35.40
2010,11,15,19,49,45.10
2010,11,15,19,50,40.20
2010,11,15,19,51,22.50
2010,11,15,19,52,22.50
2010,11,15,19,53,22.50
2010,11,15,19,54,22.50
2010,11,15,19,55,45.10
2010,11,15,19,56,43.50
2010,11,15,19,57,43.50
2010,11,15,19,58,43.50
2010,11,15,19,59,41.80
2010,11,15,20,00,41.80
2010,11,15,20,01,61.20
2010,11,15,20,02,49.90
2010,11,15,20,03,49.90
2010,11,15,20,04,37.00
2010,11,15,20,05,48.30
2010,11,15,20,06,46.70
2010,11,15,20,07,43.50
2010,11,15,20,08,45.10
2010,11,15,20,09,40.20
2010,11,15,20,10,38.60
2010,11,15,20,11,45.10
2010,11,15,20,12,35.40
2010,11,15,20,13,37.00
2010,11,15,20,14,37.00
2010,11,15,20,15,32.20
2010,11,15,20,16,37.00
2010,11,15,20,17,41.80
2010,11,15,20,18,53.10
2010,11,15,20,19,32.20
2010,11,15,20,20,33.80
2010,11,15,20,21,37.00
2010,11,15,20,22,43.50
2010,11,15,20,23,30.60
2010,11,15,20,24,33.80
2010,11,15,20,25,43.50
2010,11,15,20,26,38.60
2010,11,15,20,27,37.00
2010,11,15,20,28,38.60
2010,11,15,20,29,41.80
2010,11,15,20,30,33.80
2010,11,15,20,31,33.80
2010,11,15,20,32,37.00
2010,11,15,20,33,33.80
2010,11,15,20,34,41.80
2010,11,15,20,35,41.80
2010,11,15,20,36,38.60
2010,11,15,20,37,45.10
2010,11,15,20,38,51.50
2010,11,15,20,39,37.00
2010,11,15,20,40,37.00
2010,11,15,20,41,33.80
2010,11,15,20,42,33.80
2010,11,15,20,43,48.30
2010,11,15,20,44,37.00
2010,11,15,20,45,40.20
2010,11,15,20,46,30.60
2010,11,15,20,47,30.60
2010,11,15,20,48,29.00
2010,11,15,20,49,30.60
2010,11,15,20,50,30.60
2010,11,15,20,51,32.20
2010,11,15,20,52,30.60
2010,11,15,20,53,24.20
2010,11,15,20,54,30.60
2010,11,15,20,55,32.20
2010,11,15,20,56,43.50
2010,11,15,20,57,35.40
2010,11,15,20,58,35.40
2010,11,15,20,59,30.60
2010,11,15,21,00,37.00
2010,11,15,21,01,30.60
2010,11,15,21,02,33.80
2010,11,15,21,03,38.60
2010,11,15,21,04,29.00
2010,11,15,21,05,33.80
2010,11,15,21,06,33.80
2010,11,15,21,07,30.60
2010,11,15,21,08,32.20
2010,11,15,21,09,24.20
2010,11,15,21,10,40.20
2010,11,15,21,11,22.50
2010,11,15,21,12,25.70
2010,11,15,21,13,37.00
2010,11,15,21,14,33.80
2010,11,15,21,15,41.80
2010,11,15,21,16,24.20
2010,11,15,21,17,19.30
2010,11,15,21,18,20.90
2010,11,15,21,19,20.90
2010,11,15,21,20,16.10
2010,11,15,21,21,20.90
2010,11,15,21,22,17.70
2010,11,15,21,23,11.30
2010,11,15,21,24,14.50
2010,11,15,21,25,9.60
2010,11,15,21,26,22.50
2010,11,15,21,27,6.40
2010,11,15,21,28,4.80
2010,11,15,21,29,4.80
2010,11,15,21,30,16.10
2010,11,15,21,31,37.00
2010,11,15,21,32,20.90
2010,11,15,21,33,27.40
2010,11,15,21,34,11.30
2010,11,15,21,35,17.70
2010,11,15,21,36,11.30
2010,11,15,21,37,11.30
2010,11,15,21,38,11.30
2010,11,15,21,39,11.30
2010,11,15,21,40,17.70
2010,11,15,21,41,11.30
2010,11,15,21,42,8.10
2010,11,15,21,43,6.40
2010,11,15,21,44,8.10
2010,11,15,21,45,9.60
2010,11,15,21,46,19.30
2010,11,15,21,47,8.10
2010,11,15,21,48,16.10
2010,11,15,21,49,9.60
2010,11,15,21,50,22.50
2010,11,15,21,51,17.70
2010,11,15,21,52,6.40
2010,11,15,21,53,25.70
2010,11,15,21,54,16.10
2010,11,15,21,55,16.10
2010,11,15,21,56,12.90
2010,11,15,21,57,11.30
2010,11,15,21,58,8.10
2010,11,15,21,59,6.40
2010,11,15,22,00,6.40
2010,11,15,22,01,11.30
2010,11,15,22,02,6.40
2010,11,15,22,03,3.20
2010,11,15,22,04,1.60
2010,11,15,22,06,3.20
2010,11,15,22,07,9.60
2010,11,15,22,08,11.30
2010,11,15,22,09,4.80
2010,11,15,22,10,8.10
2010,11,15,22,11,8.10
2010,11,15,22,14,4.80
2010,11,15,22,15,3.20
2010,11,15,22,20,1.60
2010,11,15,22,22,3.20
2010,11,15,22,23,9.60
2010,11,15,22,24,6.40
2010,11,15,22,25,6.40
2010,11,15,22,26,12.90
2010,11,15,22,27,9.60
2010,11,15,22,28,16.10
2010,11,15,22,29,8.10
2010,11,15,22,30,9.60
2010,11,15,22,31,4.80
2010,11,15,22,32,1.60
2010,11,15,22,33,3.20
2010,11,15,22,34,4.80
2010,11,15,22,35,11.30
2010,11,15,22,36,17.70
2010,11,15,22,37,11.30
2010,11,15,22,38,9.60
2010,11,15,22,39,8.10
2010,11,15,22,40,16.10
2010,11,15,22,41,9.60
2010,11,15,22,42,14.50
2010,11,15,22,43,16.10
2010,11,15,22,44,12.90
2010,11,15,22,45,6.40
2010,11,15,22,46,3.20
2010,11,15,22,47,1.60
2010,11,15,22,48,6.40
2010,11,15,22,49,4.80
2010,11,15,22,50,3.20
2010,11,15,22,51,4.80
2010,11,15,22,52,4.80
2010,11,15,22,53,1.60
2010,11,15,23,00,3.20
2010,11,15,23,01,4.80
2010,11,15,23,02,1.60
2010,11,15,23,03,1.60
2010,11,15,23,04,4.80
2010,11,15,23,05,4.80
2010,11,15,23,06,9.60
2010,11,15,23,07,8.10
2010,11,15,23,08,4.80
2010,11,15,23,09,3.20
2010,11,15,23,10,4.80
2010,11,15,23,11,8.10
2010,11,15,23,12,4.80
2010,11,15,23,13,4.80
2010,11,15,23,14,3.20
2010,11,15,23,15,4.80
2010,11,15,23,16,9.60
2010,11,15,23,17,9.60
2010,11,15,23,18,6.40
2010,11,15,23,19,8.10
2010,11,15,23,20,8.10
2010,11,15,23,21,1.60
2010,11,15,23,24,1.60
2010,11,15,23,25,1.60
2010,11,15,23,26,3.20
2010,11,15,23,27,3.20
2010,11,15,23,28,3.20
2010,11,15,23,29,3.20
2010,11,15,23,31,1.60
2010,11,15,23,34,3.20
2010,11,15,23,35,1.60
2010,11,15,23,36,3.20
2010,11,15,23,37,4.80
2010,11,15,23,38,6.40
2010,11,15,23,39,4.80
2010,11,15,23,40,1.60
2010,11,15,23,41,9.60
2010,11,15,23,42,6.40
2010,11,15,23,43,8.10
2010,11,15,23,44,8.10
2010,11,15,23,45,11.30
2010,11,15,23,46,14.50
2010,11,15,23,47,16.10
2010,11,15,23,48,11.30
2010,11,15,23,49,9.60
2010,11,15,23,50,9.60
2010,11,15,23,51,9.60
2010,11,15,23,52,8.10
2010,11,15,23,53,11.30
2010,11,15,23,54,16.10
2010,11,15,23,55,20.90
2010,11,15,23,56,19.30
2010,11,15,23,57,22.50
2010,11,15,23,58,16.10
2010,11,15,23,59,22.50
